GW6199 Weather Reports


Display with metric or nautical units.
time (UTC)temp
F
wind
direction
speed
MPH
gust
MPH
rain 1hr
in
rain 24hr
in
rain mn
in
humidity
%
barometer
mb
20260505093058 61 91 0.0 1.0 0.00 0.00 0.00 76 1009.9
20260505092555 62 109 0.0 1.0 0.00 0.00 0.00 73 1009.7
20260505092053 63 109 0.0 1.0 0.00 0.00 0.00 72 1009.4
20260505091550 63 107 1.0 1.0 0.00 0.00 0.00 66 1009.4
20260505091049 63 119 1.0 3.0 0.00 0.00 0.00 65 1009.3
20260505090546 63 143 1.0 3.0 0.00 0.00 0.00 65 1008.9
20260505090044 63 220 1.0 4.0 0.00 0.00 0.00 64 1008.8
20260505085541 63 125 1.0 3.0 0.00 0.00 0.00 64 1008.6
20260505085039 63 141 1.0 2.0 0.00 0.00 0.00 64 1008.6
20260505084537 64 165 1.0 2.0 0.00 0.00 0.00 64 1008.5
20260505084035 64 131 0.0 4.0 0.00 0.00 0.00 64 1008.5
20260505083532 64 100 0.0 2.0 0.00 0.00 0.00 64 1008.5
20260505083028 64 109 0.0 2.0 0.00 0.00 0.00 64 1008.4
20260505082524 64 145 2.0 3.0 0.00 0.00 0.00 64 1008.4
20260505082021 64 124 1.0 2.0 0.00 0.00 0.00 63 1008.3
20260505081518 64 192 1.0 1.0 0.00 0.00 0.00 63 1008.1
20260505081015 64 114 2.0 4.0 0.00 0.00 0.00 63 1008.0
20260505080511 64 113 0.0 1.0 0.00 0.00 0.00 63 1007.9
20260505080007 64 112 0.0 1.0 0.00 0.00 0.00 63 1008.1
20260505075503 64 108 0.0 3.0 0.00 0.00 0.00 62 1008.0
20260505075000 64 145 2.0 4.0 0.00 0.00 0.00 61 1007.9
20260505074458 65 100 1.0 6.0 0.00 0.00 0.00 61 1008.1
20260505073955 65 120 2.0 4.0 0.00 0.00 0.00 61 1007.8
20260505073452 65 145 1.0 3.0 0.00 0.00 0.00 61 1007.9
20260505072949 65 176 2.0 6.0 0.00 0.00 0.00 61 1007.7
20260505072445 65 173 1.0 2.0 0.00 0.00 0.00 61 1007.6
20260505071942 65 154 1.0 7.0 0.00 0.00 0.00 61 1007.3
20260505071438 65 110 2.0 6.0 0.00 0.00 0.00 61 1007.4
20260505070936 65 219 1.0 4.0 0.00 0.00 0.00 60 1007.5
20260505070432 65 10 1.0 7.0 0.00 0.00 0.00 60 1007.7
20260505065928 65 159 4.0 7.0 0.00 0.00 0.00 59 1007.6
20260505065424 66 235 3.0 7.0 0.00 0.00 0.00 59 1007.6
20260505064921 66 98 1.0 8.0 0.00 0.00 0.00 60 1007.7
20260505064419 66 159 2.0 3.0 0.00 0.00 0.00 60 1007.6
20260505063917 66 155 2.0 7.0 0.00 0.00 0.00 59 1007.8
20260505063413 66 221 5.0 9.0 0.00 0.00 0.00 59 1007.7
20260505062909 66 194 2.0 3.0 0.00 0.00 0.00 59 1007.7
20260505062407 66 165 2.0 9.0 0.00 0.00 0.00 59 1007.7
20260505061903 66 66 2.0 8.0 0.00 0.00 0.00 59 1007.7
20260505061402 66 198 4.0 8.0 0.00 0.00 0.00 59 1007.8
20260505060859 66 155 2.0 11.0 0.00 0.00 0.00 59 1007.7
20260505060356 66 154 5.0 7.0 0.00 0.00 0.00 59 1007.4
20260505055852 66 208 3.0 9.0 0.00 0.00 0.00 59 1007.4
20260505055348 66 115 3.0 4.0 0.00 0.00 0.00 58 1007.4
20260505054845 66 87 4.0 13.0 0.00 0.00 0.00 58 1007.4
20260505054342 66 209 4.0 7.0 0.00 0.00 0.00 58 1007.1
20260505053840 66 145 4.0 7.0 0.00 0.00 0.00 58 1007.2
20260505053337 66 191 4.0 8.0 0.00 0.00 0.00 59 1007.3
20260505052834 67 81 2.0 7.0 0.00 0.00 0.00 58 1007.1
20260505052331 67 163 3.0 7.0 0.00 0.00 0.00 58 1007.2
20260505051828 67 208 3.0 6.0 0.00 0.00 0.00 58 1007.1
20260505051325 67 159 2.0 4.0 0.00 0.00 0.00 58 1007.0
20260505050823 67 244 2.0 7.0 0.00 0.00 0.00 58 1007.1
20260505050322 67 147 1.0 4.0 0.00 0.00 0.00 58 1007.3
20260505041751 68 188 2.0 7.0 0.00 0.00 0.00 58 1007.6
20260505041249 68 154 2.0 6.0 0.00 0.00 0.00 58 1007.6
20260505040746 68 228 2.0 7.0 0.00 0.00 0.00 58 1007.7
20260505040243 68 229 2.0 3.0 0.00 0.00 0.00 58 1007.7
20260505035740 68 195 3.0 8.0 0.00 0.00 0.00 58 1007.9
20260505035236 68 129 1.0 6.0 0.00 0.00 0.00 58 1008.0
20260505034733 68 223 2.0 4.0 0.00 0.00 0.00 58 1008.0
20260505034230 68 205 2.0 6.0 0.00 0.00 0.00 58 1007.8
20260505033727 68 195 1.0 4.0 0.00 0.00 0.00 59 1007.8
20260505033225 68 126 4.0 7.0 0.00 0.00 0.00 58 1007.7
20260505032722 68 254 2.0 4.0 0.00 0.00 0.00 58 1007.8
20260505032218 68 227 2.0 3.0 0.00 0.00 0.00 59 1007.8
20260505031716 68 87 1.0 2.0 0.00 0.00 0.00 59 1007.7
20260505031212 68 136 2.0 4.0 0.00 0.00 0.00 59 1007.7
20260505030709 68 173 3.0 4.0 0.00 0.00 0.00 59 1007.7
20260505030205 68 198 1.0 8.0 0.00 0.00 0.00 60 1007.7
20260505025700 68 86 0.0 8.0 0.00 0.00 0.00 59 1007.6
20260505025159 68 110 3.0 4.0 0.00 0.00 0.00 59 1007.4
20260505024657 68 112 1.0 4.0 0.00 0.00 0.00 59 1007.4
20260505024153 68 146 1.0 3.0 0.00 0.00 0.00 59 1007.4
20260505023651 68 198 2.0 3.0 0.00 0.00 0.00 59 1007.3
20260505023148 68 245 4.0 6.0 0.00 0.00 0.00 58 1007.3
20260505022646 68 178 3.0 8.0 0.00 0.00 0.00 58 1007.4
20260505022143 68 169 3.0 3.0 0.00 0.00 0.00 59 1007.2
20260505021639 69 193 3.0 3.0 0.00 0.00 0.00 58 1007.2
20260505021136 69 128 3.0 4.0 0.00 0.00 0.00 58 1007.1
20260505020631 69 151 1.0 2.0 0.00 0.00 0.00 58 1007.1
20260505020128 69 176 2.0 3.0 0.00 0.00 0.00 58 1006.9
20260505015625 69 142 2.0 3.0 0.00 0.00 0.00 58 1006.7
20260505015122 69 101 2.0 4.0 0.00 0.00 0.00 58 1006.8
20260505014618 69 119 2.0 3.0 0.00 0.00 0.00 58 1006.6
20260505014115 69 126 1.0 3.0 0.00 0.00 0.00 58 1006.6
20260505013613 69 210 4.0 6.0 0.00 0.00 0.00 58 1006.6
20260505013110 69 180 1.0 2.0 0.00 0.00 0.00 59 1006.5
20260505012608 69 148 2.0 2.0 0.00 0.00 0.00 58 1006.5
20260505012104 69 146 1.0 3.0 0.00 0.00 0.00 58 1006.4
20260505011600 70 104 0.0 3.0 0.00 0.00 0.00 58 1006.3
20260505011058 70 140 1.0 4.0 0.00 0.00 0.00 57 1006.6
20260505010558 70 127 3.0 3.0 0.00 0.00 0.00 57 1006.3
20260505010055 70 217 2.0 6.0 0.00 0.00 0.00 57 1006.4
20260505005552 70 137 2.0 3.0 0.00 0.00 0.00 57 1006.3
20260505005049 70 146 2.0 4.0 0.00 0.00 0.00 56 1006.4
20260505004546 71 126 1.0 4.0 0.00 0.00 0.00 56 1006.3
20260505004043 71 140 1.0 4.0 0.00 0.00 0.00 55 1006.4
20260505003540 71 195 2.0 4.0 0.00 0.00 0.00 55 1006.4
20260505003037 71 103 1.0 3.0 0.00 0.00 0.00 55 1006.2
20260505002537 71 100 2.0 3.0 0.00 0.00 0.00 54 1006.4
20260505002037 71 122 3.0 4.0 0.00 0.00 0.00 54 1006.4
20260505001534 72 119 2.0 3.0 0.00 0.00 0.00 53 1006.6
20260505001031 72 129 1.0 3.0 0.00 0.00 0.00 52 1006.4
20260505000528 72 196 1.0 3.0 0.00 0.00 0.00 52 1006.6
20260505000026 72 190 2.0 4.0 0.00 0.00 0.00 52 1006.7
20260504235522 72 140 1.0 3.0 0.00 0.00 0.00 52 1006.8
20260504235019 73 102 0.0 2.0 0.00 0.00 0.00 52 1006.8
20260504234516 73 116 1.0 2.0 0.00 0.00 0.00 51 1006.6
20260504234013 73 202 2.0 6.0 0.00 0.00 0.00 50 1006.8
20260504233508 73 200 1.0 4.0 0.00 0.00 0.00 51 1006.9
20260504233005 73 207 2.0 7.0 0.00 0.00 0.00 50 1006.9
20260504232503 73 197 3.0 10.0 0.00 0.00 0.00 49 1007.0
20260504232000 74 221 1.0 6.0 0.00 0.00 0.00 49 1007.2
20260504231456 74 225 3.0 4.0 0.00 0.00 0.00 49 1007.1
20260504230953 74 132 2.0 6.0 0.00 0.00 0.00 49 1007.3
20260504230449 75 210 2.0 8.0 0.00 0.00 0.00 47 1007.1
20260504225948 75 201 3.0 14.0 0.00 0.00 0.00 47 1007.2
20260504225444 75 223 3.0 4.0 0.00 0.00 0.00 47 1007.5
20260504224942 75 197 1.0 6.0 0.00 0.00 0.00 47 1007.3
20260504224438 76 191 4.0 4.0 0.00 0.00 0.00 46 1007.4
20260504223936 76 166 3.0 7.0 0.00 0.00 0.00 47 1007.2
20260504223431 76 25 4.0 8.0 0.00 0.00 0.00 47 1007.3
20260504222927 75 164 3.0 8.0 0.00 0.00 0.00 45 1007.3
20260504222425 76 93 3.0 6.0 0.00 0.00 0.00 47 1007.2
20260504221923 76 205 4.0 6.0 0.00 0.00 0.00 46 1007.3
20260504221419 76 167 4.0 8.0 0.00 0.00 0.00 47 1007.5
20260504220916 76 201 5.0 8.0 0.00 0.00 0.00 48 1007.4
20260504220413 76 200 2.0 3.0 0.00 0.00 0.00 52 1007.1
20260504215910 75 170 2.0 3.0 0.00 0.00 0.00 51 1007.2
20260504215407 75 119 0.0 1.0 0.00 0.00 0.00 54 1007.5
20260504214903 75 197 0.0 1.0 0.00 0.00 0.00 53 1007.4
20260504214359 75 119 0.0 1.0 0.00 0.00 0.00 53 1007.6
20260504213856 75 143 2.0 2.0 0.00 0.00 0.00 52 1007.5
20260504213352 75 189 1.0 2.0 0.00 0.00 0.00 51 1007.7
20260504212850 75 106 1.0 2.0 0.00 0.00 0.00 50 1007.6
20260504212345 75 117 0.0 1.0 0.00 0.00 0.00 51 1007.9
20260504211844 75 176 1.0 1.0 0.00 0.00 0.00 50 1007.9
20260504211339 75 122 1.0 2.0 0.00 0.00 0.00 50 1008.1
20260504210837 75 131 1.0 2.0 0.00 0.00 0.00 52 1008.1
20260504210334 75 154 1.0 2.0 0.00 0.00 0.00 50 1008.1
20260504205831 76 136 2.0 6.0 0.00 0.00 0.00 48 1008.1
20260504205328 77 148 1.0 6.0 0.00 0.00 0.00 47 1008.2
20260504204826 78 152 2.0 4.0 0.00 0.00 0.00 45 1008.1
20260504204325 77 163 1.0 3.0 0.00 0.00 0.00 47 1008.1
20260504203824 78 226 3.0 4.0 0.00 0.00 0.00 47 1008.4
20260504203320 78 179 2.0 6.0 0.00 0.00 0.00 49 1008.4
20260504202816 77 110 2.0 4.0 0.00 0.00 0.00 51 1008.4
20260504202314 76 170 2.0 4.0 0.00 0.00 0.00 51 1008.5
20260504201810 76 182 3.0 7.0 0.00 0.00 0.00 51 1008.8
20260504201308 75 191 1.0 4.0 0.00 0.00 0.00 52 1008.7
20260504200805 75 112 2.0 3.0 0.00 0.00 0.00 52 1008.7
20260504200301 76 216 2.0 3.0 0.00 0.00 0.00 51 1008.7
20260504195757 76 188 0.0 6.0 0.00 0.00 0.00 51 1008.9
20260504195253 76 238 2.0 4.0 0.00 0.00 0.00 49 1009.0
20260504194751 75 156 1.0 4.0 0.00 0.00 0.00 52 1009.0
20260504194247 75 207 1.0 4.0 0.00 0.00 0.00 52 1009.0
20260504193743 76 206 2.0 4.0 0.00 0.00 0.00 51 1009.1
20260504193240 75 190 1.0 2.0 0.00 0.00 0.00 54 1009.4
20260504192739 75 49 2.0 7.0 0.00 0.00 0.00 51 1009.3
20260504192236 75 189 2.0 4.0 0.00 0.00 0.00 55 1009.5
20260504191735 74 74 1.0 4.0 0.00 0.00 0.00 54 1009.6
20260504191232 73 212 1.0 7.0 0.00 0.00 0.00 54 1009.7
20260504190726 74 146 4.0 7.0 0.00 0.00 0.00 54 1009.6
20260504190224 74 87 2.0 3.0 0.00 0.00 0.00 56 1009.8
20260504185720 73 162 1.0 3.0 0.00 0.00 0.00 57 1009.8
20260504185217 72 191 2.0 10.0 0.00 0.00 0.00 59 1009.9
20260504184713 71 198 2.0 7.0 0.00 0.00 0.00 60 1010.0
20260504184209 70 205 1.0 3.0 0.00 0.00 0.00 61 1009.9
20260504183705 70 206 2.0 4.0 0.00 0.00 0.00 60 1009.9
20260504183202 70 161 2.0 3.0 0.00 0.00 0.00 60 1010.1
20260504182700 69 88 1.0 2.0 0.00 0.00 0.00 63 1010.0
20260504182157 69 157 2.0 6.0 0.00 0.00 0.00 61 1010.2
20260504181654 70 167 3.0 7.0 0.00 0.00 0.00 61 1009.9
20260504181152 69 118 4.0 6.0 0.00 0.00 0.00 60 1009.9
20260504180651 69 139 3.0 3.0 0.00 0.00 0.00 63 1009.7
20260504180149 69 125 4.0 7.0 0.00 0.00 0.00 60 1010.0
20260504175646 68 193 2.0 10.0 0.00 0.00 0.00 62 1009.7
20260504175142 68 201 5.0 9.0 0.00 0.00 0.00 60 1009.6
20260504174641 68 190 2.0 10.0 0.00 0.00 0.00 60 1009.8
20260504174137 69 191 4.0 11.0 0.00 0.00 0.00 60 1009.6
20260504173634 69 185 3.0 13.0 0.00 0.00 0.00 59 1009.6
20260504173132 69 237 2.0 6.0 0.00 0.00 0.00 61 1009.5
20260504172628 69 207 5.0 8.0 0.00 0.00 0.00 58 1009.6
20260504172125 70 221 4.0 7.0 0.00 0.00 0.00 60 1009.6
20260504171621 68 208 3.0 7.0 0.00 0.00 0.00 60 1009.8
20260504171119 68 114 2.0 6.0 0.00 0.00 0.00 62 1009.7
20260504170615 67 126 2.0 6.0 0.00 0.00 0.00 63 1009.4
20260504170112 69 218 4.0 8.0 0.00 0.00 0.00 60 1009.1
20260504150958 66 107 2.0 7.0 0.00 0.00 0.00 61 1010.3
20260504150455 65 202 2.0 4.0 0.00 0.00 0.00 63 1010.1
20260504140921 61 183 1.0 2.0 0.00 0.00 0.00 67 1010.2
20260504140417 61 137 2.0 3.0 0.00 0.00 0.00 65 1010.3
20260504130343 55 275 2.0 7.0 0.00 0.00 0.00 71 1010.8
20260504120306 55 196 2.0 2.0 0.00 0.00 0.00 71 1011.1
20260504110230 54 125 1.0 4.0 0.00 0.00 0.00 67 1010.5
20260504100153 53 230 2.0 3.0 0.00 0.00 0.00 67 1011.0